Palma De Mallorca, Spain

11:39 PM CEST on August 29, 2016 (GMT +0200)
Palma De Mallorca

Weather History for LEPA - July, 2012

Change the Weather History Date:

Tuesday, July 17, 2012

  Actual Average Record
Temperature  
Mean Temperature 76 °F -  
Max Temperature 92 °F 86 °F 93 °F (2003)
Min Temperature 61 °F 65 °F 59 °F (2000)
Cooling Degree Days 12    
Growing Degree Days 26 (Base 50)    
Moisture  
Dew Point 58 °F    
Average Humidity 54    
Maximum Humidity 94    
Minimum Humidity 17    
Precipitation  
Precipitation 0.00 in 0.02 in - ()
Sea Level Pressure  
Sea Level Pressure 30.28 in    
Wind  
Wind Speed 4 mph ()    
Max Wind Speed 17 mph    
Max Gust Speed -    
Visibility 6.9 miles    
Events      
Averages and records for this station are not official NWS values.
T = Trace of Precipitation, MM = Missing Value Source: Averaged Metar Reports

Daily Weather History Graph

Daily Weather History Graph

Search for Another Location

Airport or City:

Trip Planner

Search our weather history database for the weather conditions in past years. The results will help you decide how hot, cold, wet, or windy it might be!

Date:

Astronomy

Jul. 17, 2012 Rise Set
Actual Time 6:35 AM CEST 9:14 PM CEST
Civil Twilight 6:04 AM CEST 9:45 PM CEST
Nautical Twilight 5:25 AM CEST 10:24 PM CEST
Astronomical Twilight 4:41 AM CEST 11:08 PM CEST
Moon 4:58 AM CEST (7/17) 7:52 PM CEST (7/17)
Length of Visible Light 15h 41m
Length of Day
14h 38m
Waning Crescent, 3% of the Moon is Illuminated
Jul 17
Waning Crescent
Jul 19
New
Jul 26
First Quarter
Aug 2
Full
Aug 9
Last Quarter

Hourly Weather History & Observations

Time (CEST) Temp. Heat Index Dew Point Humidity Pressure Visibility Wind Dir Wind Speed Gust Speed Precip Events Conditions
12:30 AM 73.4 °F - 64.4 °F 73% 30.33 in 6.2 mi East 3.5 mph - N/A   Scattered Clouds
1:00 AM 71.6 °F - 62.6 °F 73% 30.33 in 6.2 mi ENE 3.5 mph - N/A   Scattered Clouds
1:30 AM 71.6 °F - 62.6 °F 73% 30.33 in 6.2 mi ENE 2.3 mph - N/A   Partly Cloudy
2:00 AM 69 °F - 60 °F 66% 30.34 in 7 mi ENE 3.5 mph - -   Scattered Clouds
2:00 AM 69.8 °F - 62.6 °F 78% 30.33 in 6.2 mi ENE 3.5 mph - N/A   Partly Cloudy
2:30 AM 68.0 °F - 62.6 °F 83% 30.33 in 6.2 mi NE 3.5 mph - N/A   Partly Cloudy
3:00 AM 68.0 °F - 62.6 °F 83% 30.33 in 6.2 mi Variable 1.2 mph - N/A   Partly Cloudy
3:30 AM 66.2 °F - 60.8 °F 83% 30.30 in 6.2 mi Calm Calm - N/A   Partly Cloudy
4:00 AM 66.2 °F - 62.6 °F 88% 30.30 in 6.2 mi Calm Calm - N/A   Partly Cloudy
4:30 AM 66.2 °F - 60.8 °F 83% 30.30 in 6.2 mi ENE 1.2 mph - N/A   Partly Cloudy
5:30 AM 62.6 °F - 59.0 °F 88% 30.30 in 6.2 mi Calm Calm - N/A   Partly Cloudy
6:00 AM 62.6 °F - 59.0 °F 88% 30.30 in 6.2 mi Calm Calm - N/A   Partly Cloudy
6:30 AM 62.6 °F - 59.0 °F 88% 30.30 in 6.2 mi ENE 1.2 mph - N/A   Partly Cloudy
7:00 AM 62.6 °F - 60.8 °F 94% 30.30 in 6.2 mi ENE 2.3 mph - N/A   Partly Cloudy
7:30 AM 64.4 °F - 60.8 °F 88% 30.30 in 6.2 mi ENE 1.2 mph - N/A   Partly Cloudy
8:00 AM 67 °F - 60 °F 70% 30.33 in 19 mi Calm Calm - -   Scattered Clouds
8:00 AM 68.0 °F - 62.6 °F 83% 30.30 in 6.2 mi Calm Calm - N/A   Partly Cloudy
8:30 AM 71.6 °F - 64.4 °F 78% 30.33 in 6.2 mi Calm Calm - N/A   Partly Cloudy
9:00 AM 77.0 °F - 62.6 °F 61% 30.33 in 6.2 mi Calm Calm - N/A   Partly Cloudy
9:30 AM 78.8 °F - 62.6 °F 57% 30.33 in 6.2 mi Calm Calm - N/A   Partly Cloudy
10:00 AM 80.6 °F 81.5 °F 60.8 °F 51% 30.33 in 6.2 mi Calm Calm - N/A   Partly Cloudy
10:30 AM 80.6 °F 81.1 °F 59.0 °F 48% 30.33 in 6.2 mi SSW 3.5 mph - N/A   Partly Cloudy
11:00 AM 80.6 °F 80.5 °F 55.4 °F 42% 30.33 in - SSW 6.9 mph - N/A   Clear
11:30 AM 82.4 °F 81.7 °F 55.4 °F 39% 30.33 in - SW 8.1 mph - N/A   Clear
12:00 PM 84.2 °F 83.0 °F 55.4 °F 37% 30.33 in 6.2 mi SSW 11.5 mph - N/A   Partly Cloudy
12:30 PM 82.4 °F 81.7 °F 55.4 °F 39% 30.33 in 6.2 mi SW 11.5 mph - N/A   Partly Cloudy
1:00 PM 84.2 °F - 51.8 °F 33% 30.33 in 6.2 mi SW 11.5 mph - N/A   Partly Cloudy
1:30 PM 84.2 °F 83.0 °F 55.4 °F 37% 30.30 in 6.2 mi SW 12.7 mph - N/A   Partly Cloudy
2:00 PM 85 °F - 50 °F 19% 30.31 in 25 mi WSW 17.3 mph - -   Scattered Clouds
2:00 PM 86.0 °F 84.2 °F 53.6 °F 33% 30.30 in 6.2 mi SW 15.0 mph - N/A   Partly Cloudy
2:30 PM 86.0 °F 84.5 °F 55.4 °F 35% 30.30 in 6.2 mi SW 13.8 mph - N/A   Partly Cloudy
3:00 PM 87.8 °F - 51.8 °F 29% 30.27 in 6.2 mi SW 15.0 mph - N/A   Partly Cloudy
3:30 PM 87.8 °F 86.1 °F 55.4 °F 33% 30.27 in 6.2 mi SW 12.7 mph - N/A   Partly Cloudy
4:00 PM 89.6 °F 87.3 °F 53.6 °F 29% 30.27 in 6.2 mi Variable 5.8 mph - N/A   Partly Cloudy
4:30 PM 89.6 °F 87.3 °F 53.6 °F 29% 30.24 in 6.2 mi SW 10.4 mph - N/A   Partly Cloudy
5:00 PM 89.6 °F - 51.8 °F 27% 30.24 in 6.2 mi SW 6.9 mph - N/A   Partly Cloudy
5:30 PM 91.4 °F - 51.8 °F 26% 30.24 in 6.2 mi Variable 8.1 mph - N/A   Partly Cloudy
6:00 PM 89.6 °F 87.3 °F 53.6 °F 29% 30.24 in 6.2 mi SSW 3.5 mph - N/A   Partly Cloudy
6:30 PM 89.6 °F - 48.2 °F 24% 30.21 in - East 3.5 mph - N/A   Clear
7:00 PM 89.6 °F - 48.2 °F 24% 30.21 in - East 3.5 mph - N/A   Clear
7:30 PM 87.8 °F 85.7 °F 53.6 °F 31% 30.21 in - SSW 8.1 mph - N/A   Clear
8:00 PM 87 °F - 48 °F 17% 30.22 in 19 mi SW 9.2 mph - -  
8:00 PM 86.0 °F 84.2 °F 53.6 °F 33% 30.21 in - SW 8.1 mph - N/A   Clear
8:30 PM 86.0 °F 84.5 °F 55.4 °F 35% 30.21 in - SSW 5.8 mph - N/A   Clear
9:00 PM 84.2 °F 84.4 °F 60.8 °F 45% 30.21 in - SSW 4.6 mph - N/A   Clear
9:30 PM 82.4 °F 83.9 °F 64.4 °F 54% 30.21 in - Variable 2.3 mph - N/A   Clear
10:00 PM 78.8 °F - 64.4 °F 61% 30.21 in - SSE 3.5 mph - N/A   Clear
10:30 PM 80.6 °F 82.3 °F 64.4 °F 58% 30.21 in - SSE 3.5 mph - N/A   Clear
11:00 PM 75.2 °F - 64.4 °F 69% 30.24 in - SE 3.5 mph - N/A   Clear
11:30 PM 75.2 °F - 64.4 °F 69% 30.24 in - Variable 1.2 mph - N/A   Clear